Погода в Малотроицком

Россия / Липецкая область     52°51′52″N   39°01′05″E
темп.,
°C
ветер,
м/с
пор.,
м/с
влажн.,
%
обл.,
%
осадки,
мм/ч
давл.,
гПа
погр.,
м
15 мая, сб
сб1500:00+16ююв119275 1.5 101016
03:00+16ююв3894100 1.5 1010159
06:00+17ю3696100 0.4 1009157
09:00+21ююз5773100 0.4 1011555
12:00+22ююз576084 0.0 10111269
15:00+22ююз68530 0.0 10121500
18:00+20юз59685 0.3 1012541
21:00+15ююз348399 0.3 101364
16 мая, вс
вс1600:00+14ююз33851 0.0 101331
03:00+13ююз228737 0.0 101419
06:00+14ююз22834 0.0 101553
09:00+20ююв34670 0.0 1015445
12:00+23ю45500 0.0 10151994
15:00+24ююз3446100 0.0 10142027
18:00+23з1160100 0.0 1013102
21:00+18св336956 0.1 101423
17 мая, пн
пн1700:00+16всв4891100 0.3 1013135
03:00+15всв369369 0.3 101392
06:00+15в4108326 0.0 1012210
09:00+21вюв61063100 0.0 1012411
12:00+25юв61050100 0.0 1011927
15:00+26юв713528 0.0 10101697
18:00+24юв714626 0.0 1009677
21:00+20вюв616718 0.0 1009429
18 мая, вт
вт1800:00+18юв6146480 0.0 1008344
03:00+15юв5127067 0.0 1008227
06:00+15юв378750 0.6 1008168
09:00+19ю598193 1.8 1008627
12:00+22ююз6865100 0.0 10091084
15:00+21ю6966100 0.0 10101061
18:00+21ююв357117 0.1 1008845
21:00+17ююв3582100 0.2 100880
19 мая, ср
ср1900:00+15ююв3491100 1.4 100878
03:00+14ююв3693100 1.4 1007110
06:00+15ююв41092100 0.1 1006317
09:00+15ю71188100 2.1 1005800
12:00+13юз71484100 3.1 1006899
15:00+17зюз9137038 4.1 10081406
18:00+16зюз610780 1.2 10091052
21:00+12ююз489096 1.3 1011151